Temp
10 9 10 9 9 9 9 9 9 9 11 11 10 10 10 10 10 10 11 11 10 10 10 11 12 13 13 11 9 9 10 10 12 14 16 19 19 20 20 20 20 18 19 19 19 20 20
9 9 9 9 9 9 9 9 9 9 11 13 12 12 11 10 11 11 12 12 12 11 11 12 12 13 13 10 9 11 12 12 14 16 17 19 20 22 21 20 21 19 19 19 19 19 19
9 9 9 9 9 9 9 9 9 9 10 13 13 12 12 11 11 11 12 12 13 13 13 13 13 13 10 10 12 13 13 14 16 16 18 21 23 21 20 18 20 18 17 18 19 20 18
9 9 9 9 9 9 9 9 9 9 10 13 13 13 12 12 12 12 12 13 14 13 14 14 14 14 10 12 13 15 15 16 17 18 18 19 21 20 20 19 19 20 20 17 18 20 18
9 9 9 9 9 9 9 9 9 9 10 12 13 13 13 13 13 12 13 13 14 14 14 15 16 16 13 14 15 16 17 17 17 18 18 19 20 19 19 18 18 20 17 17 18 19 20
9 9 9 9 9 9 9 9 10 10 12 12 12 13 14 14 14 14 14 14 14 15 16 15 16 15 15 15 15 17 17 18 19 18 18 19 19 17 18 18 16 18 19 19 18 18 19
9 9 9 9 9 9 9 9 12 12 12 12 13 13 14 14 14 15 14 14 15 15 16 14 14 15 15 16 17 16 18 19 20 19 17 18 17 14 17 18 18 21 20 19 18 18 18
9 9 9 9 9 9 8 9 10 13 13 13 13 14 14 14 14 15 15 14 11 11 15 16 16 16 16 17 17 16 17 19 19 17 19 16 14 16 17 19 21 22 20 18 18 18 18
9 9 9 9 9 10 10 10 10 11 14 14 14 14 14 15 15 15 12 11 11 11 16 16 16 15 14 17 15 15 16 18 18 16 16 15 15 17 19 19 19 16 19 18 18 18 18
9 9 9 9 9 10 11 10 12 12 13 14 14 13 14 14 14 14 13 12 12 11 12 13 16 16 17 17 15 16 17 17 16 16 17 15 17 19 17 17 16 17 17 18 18 17 14
9 9 9 9 10 10 11 11 11 12 13 14 14 14 13 14 14 14 11 11 11 12 13 15 16 17 18 16 16 16 17 18 16 17 16 14 14 16 15 15 16 15 17 17 18 16 13
8 8 8 9 10 10 10 11 12 11 12 14 13 13 13 13 13 11 11 11 12 13 11 15 17 17 17 17 17 18 17 17 16 16 15 14 16 14 15 15 15 16 17 17 17 16 12
8 8 8 9 9 10 10 11 12 12 13 14 14 13 13 12 12 11 11 12 12 11 14 15 15 17 17 17 17 17 16 15 14 11 10 15 15 15 16 16 16 16 17 13 13 12 13
8 9 8 9 9 10 10 11 13 13 13 14 14 14 12 11 10 11 12 13 12 13 15 15 16 17 16 16 17 17 17 15 16 16 11 11 12 14 16 15 16 15 15 11 15 14 13
8 8 9 9 9 10 10 11 12 14 13 13 13 13 13 12 12 11 13 11 10 16 16 16 16 17 16 16 17 17 16 15 15 15 15 14 13 14 15 16 15 15 13 15 13 14 11
8 8 9 9 9 10 10 11 13 14 14 13 13 14 13 12 12 11 12 13 14 15 16 16 17 17 17 17 17 17 17 16 15 15 15 17 13 15 14 15 15 15 15 13 12 13 14
8 8 9 9 9 10 10 11 13 14 14 14 13 15 13 13 12 14 11 13 14 14 14 15 17 17 17 17 17 17 16 15 16 15 15 16 16 14 14 14 15 14 14 14 14 14 12
9 9 9 9 9 10 10 11 13 14 15 14 14 12 16 14 14 14 12 14 12 15 15 15 15 16 16 17 17 17 16 15 15 16 16 14 14 11 15 15 15 15 16 15 11 14 13
9 9 9 9 9 10 10 11 13 14 15 14 16 14 17 14 13 13 14 14 14 15 15 15 16 15 16 16 16 16 15 14 15 15 13 14 14 12 14 14 14 14 15 15 16 14 13
9 9 9 9 9 10 10 11 13 14 15 14 16 12 15 15 15 16 15 14 14 13 15 15 15 15 16 16 16 16 15 14 14 14 12 13 14 14 13 15 15 14 15 14 14 10 13
9 9 9 10 10 10 10 11 12 15 15 15 14 12 12 12 13 15 15 15 15 15 14 14 15 15 15 16 16 16 16 13 13 12 13 13 12 13 14 13 14 14 14 14 13 13 13
9 9 9 9 10 10 10 10 11 14 15 14 14 13 12 14 14 15 13 14 15 15 15 14 14 15 16 15 15 15 16 16 16 13 14 13 11 13 10 12 13 12 13 14 14 14 14
9 9 9 9 9 9 10 10 10 12 14 13 12 12 12 11 15 15 14 14 14 14 14 14 14 14 15 14 13 13 14 14 14 14 12 13 11 11 11 13 12 11 13 13 14 14 14
9 9 9 10 9 10 10 10 10 10 11 11 10 11 13 15 14 14 14 13 14 14 13 14 13 14 12 13 13 12 12 13 13 13 13 13 12 11 8 11 9 13 14 14 14 15 14
10 10 10 10 10 10 10 10 10 10 10 10 9 10 12 13 13 14 13 13 13 13 12 12 13 11 11 12 12 12 12 12 12 10 9 12 11 9 9 9 12 16 13 13 14 15 15
10 10 10 10 10 10 10 10 10 10 10 9 9 10 11 12 13 13 13 13 12 13 11 12 11 11 11 11 12 13 13 14 10 9 10 9 11 9 11 10 12 15 14 14 14 13 14
10 10 10 10 10 10 10 10 10 9 9 9 9 9 10 11 12 12 12 12 12 11 11 11 11 10 11 11 11 12 12 13 12 11 8 9 9 8 10 10 11 15 13 14 13 12 12
10 10 10 10 10 10 9 10 10 9 9 8 9 9 9 9 11 10 11 11 10 11 12 10 11 9 10 10 11 12 12 12 11 12 9 8 8 8 10 10 10 13 12 13 12 12 12
10 10 10 9 10 10 9 9 9 9 8 8 8 9 9 8 9 9 11 11 11 11 11 11 11 11 11 10 10 10 10 10 11 11 12 10 12 12 12 12 13 14 13 14 13 12 12
Height
824 820 817 814 812 809 806 802 799 795 791 787 783 777 773 769 764 758 754 750 748 745 745 744 747 750 753 760 770 772 769 770 771 772 770 767 768 769 776 776 778 789 787 783 786 786 788
826 822 818 816 813 810 807 803 800 796 792 788 785 781 777 772 768 765 760 756 753 753 753 752 752 753 756 765 772 771 774 772 771 771 769 765 762 762 770 776 779 785 789 789 791 794 793
827 824 821 817 814 811 807 804 801 797 793 790 787 784 779 776 773 771 767 762 758 758 758 755 754 753 757 777 774 776 777 772 770 770 766 762 760 763 772 785 781 788 796 795 796 794 800
828 825 822 819 816 812 808 805 801 799 795 791 789 786 783 779 777 774 771 768 763 763 762 759 760 757 777 773 771 772 775 773 772 770 766 766 763 767 776 781 786 787 788 804 802 796 801
830 827 823 820 817 813 808 805 802 799 796 793 790 788 785 782 779 777 772 770 768 765 763 761 760 762 776 776 775 772 772 772 770 771 768 769 770 777 782 790 796 790 809 805 808 799 799
832 829 825 821 818 814 809 805 801 798 796 794 791 789 786 784 781 779 775 771 769 767 761 762 765 769 778 781 776 775 773 773 772 772 773 775 778 785 784 791 815 800 799 797 808 807 801
833 830 826 823 819 814 810 805 802 799 796 793 791 789 786 785 782 780 777 774 772 773 767 776 780 777 778 778 777 776 774 773 772 772 784 779 787 803 795 788 787 782 792 799 807 808 807
835 831 828 824 820 815 810 806 802 799 796 793 791 788 787 784 783 781 780 779 784 784 779 780 780 778 779 776 778 778 774 776 775 784 778 793 806 798 793 786 777 780 795 808 809 807 808
837 833 829 825 821 815 811 806 802 798 795 793 791 788 786 785 784 784 783 785 784 783 778 781 781 785 786 783 788 787 783 778 781 790 793 800 806 795 790 792 794 806 800 806 810 805 805
838 834 830 825 820 816 812 807 802 798 794 792 790 788 786 785 788 786 787 786 785 785 796 798 787 789 785 785 792 791 786 787 789 795 795 805 801 795 800 806 808 811 810 805 805 810 832
839 836 832 827 822 817 812 807 802 797 793 791 790 788 786 785 787 788 790 787 787 787 807 802 794 790 787 790 794 794 789 786 792 793 799 817 814 807 815 817 807 819 810 811 808 816 831
840 837 833 828 823 818 812 807 801 795 791 789 789 789 786 787 787 790 789 789 790 797 824 805 797 792 793 792 793 791 792 791 794 800 805 816 813 816 816 815 812 812 813 812 811 819 848
841 838 834 829 824 819 813 807 801 794 790 789 788 788 787 788 789 788 789 790 799 814 815 809 805 795 796 797 799 797 800 804 809 828 838 818 820 819 815 815 813 812 814 840 843 845 845
841 838 834 830 825 819 813 807 801 795 790 789 789 789 788 789 788 788 788 790 809 817 805 806 803 797 802 801 801 798 799 810 805 804 828 837 841 823 817 818 817 819 822 843 835 842 841
841 838 835 831 826 820 814 808 801 795 790 789 789 790 790 789 787 788 789 806 822 803 802 802 804 799 804 801 801 799 806 810 811 809 813 821 828 822 820 816 819 821 830 822 837 835 854
841 838 835 831 827 821 815 809 803 796 791 789 790 790 790 788 787 787 793 809 811 808 805 803 801 800 800 802 802 800 803 810 812 813 811 809 828 820 822 821 821 822 820 836 839 843 838
840 838 835 831 827 822 817 810 804 797 792 790 789 789 790 787 787 787 808 810 809 810 810 809 801 799 799 801 800 801 809 815 811 813 812 810 813 830 825 827 821 829 827 827 825 829 840
839 838 835 831 827 823 818 812 805 798 793 791 791 802 789 787 794 796 813 808 813 810 810 809 807 803 802 801 800 802 808 813 812 812 812 816 818 837 819 818 817 818 816 818 842 831 830
838 836 835 832 829 824 819 814 808 801 795 793 794 797 791 789 805 810 810 812 811 810 810 808 807 808 807 804 808 804 809 815 813 813 819 816 817 833 824 825 821 822 815 815 815 825 832
837 836 834 832 829 825 821 816 810 804 799 797 796 811 799 796 800 802 805 811 813 814 812 811 811 809 808 806 807 810 811 816 817 815 819 818 815 819 827 817 814 817 813 814 819 844 824
837 835 833 831 829 826 823 818 812 806 801 799 801 813 812 814 811 808 807 809 810 811 813 812 811 811 809 810 808 809 809 818 819 822 819 821 823 818 814 814 813 812 813 811 816 814 820
836 835 834 832 829 827 825 821 815 808 804 804 808 812 813 811 811 809 813 814 811 809 810 812 813 808 808 812 811 814 809 810 810 821 820 820 828 820 829 813 814 815 807 803 802 801 803
834 834 833 832 830 827 825 824 820 814 808 809 812 813 813 818 811 810 814 813 813 815 813 811 812 813 811 811 813 813 810 811 811 815 822 823 827 831 829 813 816 818 792 793 792 789 793
833 832 831 831 830 829 826 825 823 820 818 817 816 815 812 810 811 814 815 817 814 812 815 812 813 813 819 815 814 815 815 813 814 813 813 817 822 829 842 825 842 788 782 784 783 784 788
827 828 829 829 829 828 828 826 824 824 823 821 819 818 815 813 811 810 816 817 817 818 819 816 815 819 818 816 817 814 816 818 817 824 826 820 823 835 842 836 801 776 785 784 782 781 780
823 824 823 825 827 827 827 826 824 824 824 824 823 820 818 816 811 809 812 815 817 813 820 818 820 820 820 819 817 813 810 801 822 830 827 827 825 835 826 832 808 780 783 780 780 790 781
821 821 821 820 821 823 825 824 824 822 823 824 824 824 822 817 811 813 812 812 814 816 818 817 819 821 820 819 819 816 814 806 812 813 834 832 833 834 828 827 804 779 785 783 791 797 788
814 815 817 818 817 819 819 819 821 821 820 822 824 824 824 821 815 813 812 813 815 816 815 819 819 822 822 821 815 809 811 808 813 807 819 825 829 831 825 820 817 785 788 790 792 788 789
808 808 809 813 814 814 815 815 815 818 820 819 820 823 823 823 818 815 814 811 811 811 813 813 814 814 812 818 816 816 818 815 809 808 799 811 798 801 803 796 786 785 787 786 786 788 788
Wind_Speed
19 18 18 18 18 18 18 18 19 21 25 26 25 22 22 22 20 24 24 22 22 21 22 24 27 21 10 9 6 4 3 1 6 8 14 14 15 10 7 7 4 10 5 9 7 7 7
19 19 19 19 19 19 18 19 19 20 21 23 24 21 20 18 17 24 29 28 23 18 18 11 8 8 8 18 7 12 3 5 7 7 14 16 11 8 5 4 0 7 9 9 7 6 5
20 20 19 18 19 19 19 19 19 19 19 21 22 21 17 17 15 19 25 29 25 25 22 18 18 30 28 7 3 3 4 6 6 9 10 16 6 7 7 7 8 13 11 7 6 2 3
21 20 20 19 19 18 19 19 18 18 18 18 19 19 16 17 14 12 12 16 17 19 21 18 23 24 6 6 6 7 7 3 1 4 8 8 11 8 5 7 7 4 6 5 4 2 2
21 21 20 20 20 20 18 18 18 17 16 16 15 14 12 12 13 9 6 4 13 12 15 17 14 16 5 3 3 10 12 5 6 5 9 9 3 3 4 6 4 4 3 8 3 4 1
21 21 21 21 21 21 20 18 17 16 15 14 14 13 11 10 8 3 8 7 9 20 9 5 17 7 5 4 2 6 5 5 2 5 4 3 3 4 3 4 3 5 4 6 6 1 2
22 22 22 22 22 22 21 19 17 14 13 14 14 13 10 7 9 5 6 9 4 4 23 14 10 9 7 9 11 12 9 3 4 3 4 3 2 5 7 6 8 7 7 8 6 2 2
23 22 23 23 23 22 23 23 19 16 13 12 13 13 11 8 10 5 4 4 3 4 9 13 12 10 12 12 7 17 19 3 1 4 2 7 7 6 6 8 3 5 8 5 4 2 1
22 23 24 24 24 25 26 24 21 17 14 12 11 12 10 4 2 8 9 4 2 8 2 9 5 5 3 8 7 10 12 6 8 14 12 9 3 6 2 7 10 10 5 4 4 4 3
20 22 24 25 25 26 27 27 24 19 14 11 10 11 9 2 2 2 2 3 3 4 4 12 9 6 7 1 5 5 8 2 7 8 8 7 5 2 7 6 7 4 6 4 5 2 1
18 19 23 26 27 28 29 29 28 21 16 9 8 10 7 3 2 1 0 2 2 2 4 8 5 6 4 5 2 6 11 9 10 5 4 3 9 8 9 5 6 4 3 4 2 4 4
18 19 20 23 26 28 29 31 33 26 18 7 5 10 6 3 4 1 1 1 2 3 3 3 4 2 7 8 4 2 2 6 0 14 14 5 2 5 3 4 7 5 4 3 2 2 2
16 19 21 24 25 28 30 32 33 29 18 5 4 6 10 4 2 1 1 3 3 6 2 2 4 2 8 6 5 4 8 6 4 5 4 3 4 2 3 3 4 5 2 1 3 3 3
13 16 21 23 26 27 30 33 34 29 15 7 4 6 10 9 1 1 2 1 8 3 3 1 2 4 4 4 2 2 4 3 5 3 4 4 1 5 4 4 3 4 2 3 3 1 2
11 15 18 22 25 27 29 33 35 31 15 6 4 4 3 8 3 2 2 6 4 1 3 3 4 3 2 2 2 2 4 3 5 8 2 3 3 2 4 3 4 1 1 2 2 3 2
10 13 16 20 23 26 29 32 34 32 17 5 2 2 3 6 3 1 4 5 3 4 2 3 2 3 4 3 3 2 1 4 3 5 6 3 3 2 3 3 0 3 3 2 1 1 3
9 12 15 18 22 25 28 31 33 32 21 5 1 1 5 6 2 1 4 4 4 3 5 5 3 1 4 3 4 2 4 1 2 2 5 4 1 2 1 5 4 1 2 3 1 2 3
11 12 14 17 20 23 27 29 32 32 22 6 4 3 10 4 3 4 3 4 3 2 0 2 3 5 6 2 3 3 4 5 3 2 1 2 2 3 3 3 3 3 3 5 2 2 3
11 11 13 15 19 23 26 28 29 30 23 4 2 1 8 6 3 3 2 3 4 1 2 3 3 4 4 4 1 3 4 0 2 2 3 3 2 0 1 1 2 3 4 3 3 2 4
10 10 11 13 17 21 25 28 26 27 19 4 2 3 3 4 1 3 2 2 2 1 1 2 2 2 2 1 3 2 3 2 2 2 1 2 2 2 3 2 0 3 6 7 6 3 4
10 10 10 13 16 19 22 26 26 25 15 3 4 2 1 3 4 4 3 1 3 2 1 1 3 2 3 2 2 1 3 3 3 2 2 3 3 2 4 6 7 8 8 9 12 12 5
11 9 11 12 14 16 20 24 27 24 10 7 3 2 1 2 1 3 0 4 3 3 1 4 1 3 2 2 3 2 3 4 2 4 2 2 3 4 5 10 8 9 11 15 16 15 17
10 10 11 11 13 14 16 19 24 26 11 6 3 1 0 1 2 3 2 2 3 4 3 3 3 4 4 1 4 5 5 4 1 4 6 4 2 1 4 5 7 9 16 17 9 7 12
14 14 12 12 13 14 15 16 18 20 17 6 4 3 2 2 0 3 1 2 1 1 2 3 2 2 2 4 5 4 5 5 5 5 4 2 2 1 4 5 2 7 4 3 6 7 9
16 14 14 15 13 13 15 14 14 15 16 9 6 4 3 2 2 3 2 1 2 3 2 2 2 3 5 3 2 3 2 1 0 5 7 2 2 1 2 3 9 2 1 2 3 1 7
20 19 15 14 15 15 14 15 14 11 11 10 8 6 3 2 1 4 2 2 2 2 3 3 2 2 2 2 2 2 3 2 3 2 2 3 3 1 2 2 4 1 3 3 3 1 5
24 22 19 16 15 15 16 15 15 12 9 7 7 7 4 2 2 2 2 2 2 1 2 2 3 2 1 2 2 3 3 2 3 5 5 4 3 7 6 3 7 1 5 2 2 2 6
27 25 22 19 17 18 18 16 16 15 11 6 6 6 2 3 3 3 3 3 2 2 1 2 0 1 1 2 2 2 2 2 1 3 5 6 5 4 4 4 8 3 3 1 1 3 4
30 28 24 23 21 20 20 19 18 16 13 10 5 7 5 3 3 4 8 9 5 2 1 3 1 1 2 1 1 2 2 2 3 3 2 4 5 4 6 4 1 2 3 3 2 1 2
Wind_Direction
21 21 18 13 12 7 2 358 0 3 6 10 14 15 16 21 46 38 45 52 57 66 88 111 110 119 115 66 53 49 153 92 317 234 238 219 176 192 162 142 172 103 84 71 84 48 61
22 19 19 15 14 7 5 1 3 3 14 18 23 18 22 22 36 51 55 60 64 79 82 100 110 90 107 67 27 78 97 297 250 214 235 245 191 183 156 87 200 116 115 108 93 79 28
22 19 16 15 11 9 6 5 6 8 10 19 20 24 21 37 51 65 64 59 64 76 82 74 115 87 62 110 91 50 260 245 231 274 265 207 139 72 83 81 107 129 111 98 61 60 63
20 21 17 14 9 10 7 6 6 9 10 26 23 34 39 45 54 57 53 50 66 64 53 70 87 88 95 273 354 343 160 217 101 67 64 29 62 111 85 123 166 161 156 105 33 299 242
20 18 18 15 9 6 8 7 7 8 12 21 28 29 17 2 31 61 53 53 35 16 6 38 53 89 109 59 9 13 135 144 105 69 58 54 330 82 129 158 126 241 159 98 111 20 19
19 18 16 15 12 7 5 6 9 8 12 14 17 26 30 13 354 61 67 71 56 29 11 15 44 76 49 41 14 61 50 144 111 148 132 186 187 143 181 169 166 194 146 123 120 63 252
17 16 16 15 12 9 5 4 1 6 9 11 8 10 17 27 359 295 322 295 330 32 51 67 55 77 51 343 80 19 359 148 165 234 120 258 129 74 28 346 289 121 119 106 99 75 346
16 14 14 16 13 10 9 4 1 352 355 2 7 2 3 15 51 71 13 39 28 334 59 59 53 45 36 355 39 5 358 176 240 80 5 50 52 12 305 295 62 164 141 87 79 132 230
18 14 11 11 11 15 14 8 2 355 347 346 358 4 352 351 46 49 79 88 340 342 50 48 64 38 325 20 40 2 359 355 89 63 74 79 13 285 265 24 61 27 55 105 91 180 177
15 16 12 9 10 15 13 11 7 358 353 344 345 2 6 354 126 146 37 327 348 7 73 343 15 35 349 13 65 29 352 318 32 66 76 64 297 62 71 54 346 87 349 51 55 49 140
10 6 11 13 12 12 12 10 9 1 347 353 357 6 17 50 29 39 271 344 349 360 64 315 356 318 39 62 335 37 11 46 61 97 110 15 23 41 58 357 335 118 344 54 340 102 56
4 1 3 8 9 9 9 10 8 2 355 338 13 17 30 67 78 75 294 2 343 51 59 353 348 9 81 64 74 127 98 52 266 73 76 96 84 21 55 44 42 158 194 197 241 80 34
3 359 360 5 4 6 6 8 9 4 3 10 17 19 36 18 70 21 88 230 41 60 263 356 19 30 77 65 78 40 73 42 63 79 25 19 66 152 321 174 198 239 227 2 14 15 218
2 359 357 1 2 3 4 5 8 7 8 26 33 39 32 34 6 109 137 335 64 249 78 39 277 104 51 348 50 151 88 101 45 63 146 145 249 4 336 20 25 31 354 131 160 148 288
357 354 357 359 1 2 4 4 5 7 6 20 61 38 53 345 15 20 232 53 143 171 104 161 207 216 117 86 306 145 54 58 32 7 21 143 96 123 17 1 355 106 55 7 75 65 55
345 353 356 359 0 2 4 5 4 6 7 27 49 257 17 352 358 310 73 102 82 20 4 267 40 305 111 78 188 139 145 359 88 21 341 40 98 307 93 303 26 330 151 80 338 157 254
336 342 353 358 359 0 3 4 3 5 4 11 37 325 339 349 342 54 76 69 107 74 9 339 11 144 67 108 353 59 65 87 10 71 309 350 192 140 70 207 188 153 232 260 346 166 190
327 334 344 351 357 359 1 3 4 3 6 26 310 38 349 2 53 42 40 14 297 74 103 37 291 347 17 346 94 114 105 56 38 325 43 89 308 167 193 80 36 333 304 174 129 262 266
320 326 339 345 352 358 0 2 4 4 6 5 39 286 352 351 65 73 158 85 33 51 52 11 36 19 353 9 5 60 89 233 105 14 27 10 266 179 171 155 160 252 206 263 313 87 241
314 321 333 341 347 355 358 0 4 5 6 33 347 18 346 39 354 69 128 83 111 73 28 351 7 277 300 254 57 35 113 70 44 63 331 316 302 235 191 141 188 204 209 201 196 171 214
301 313 322 333 342 349 355 359 3 5 5 27 20 47 127 359 24 34 358 334 134 141 202 275 195 259 352 325 197 156 71 141 194 127 285 323 276 327 272 271 265 239 239 227 208 219 206
289 309 322 332 341 348 352 358 2 7 17 54 34 8 228 103 228 282 173 17 336 116 256 130 267 19 245 279 62 340 5 197 212 137 269 137 291 3 290 256 250 263 253 234 240 233 240
279 299 317 325 335 347 353 356 3 11 23 60 40 127 203 100 308 297 54 79 47 323 35 2 350 310 224 338 8 329 312 305 293 170 198 181 238 49 274 17 315 282 247 225 233 222 227
272 283 292 305 320 336 344 350 359 12 23 11 14 300 298 129 196 38 353 341 260 141 326 118 287 274 75 312 286 259 277 271 293 249 246 192 209 205 271 334 271 245 56 6 234 209 223
259 268 283 291 299 317 324 335 345 356 8 21 8 333 345 274 111 155 142 249 292 228 266 298 34 38 340 302 283 273 173 268 167 35 349 146 302 279 215 252 286 276 159 120 128 263 221
252 257 258 272 284 294 300 311 315 328 346 353 346 3 312 317 141 116 162 114 297 244 168 172 107 351 296 278 243 255 235 184 182 156 317 304 253 266 185 241 255 85 147 37 64 239 51
251 256 259 265 267 274 283 291 293 296 307 330 312 334 312 283 135 194 203 129 127 200 253 143 161 191 303 220 236 228 244 91 225 193 157 159 211 215 233 276 290 10 131 73 123 194 43
247 248 255 261 264 271 276 275 276 282 282 287 284 304 344 312 280 186 185 172 132 215 274 171 57 294 185 229 238 241 240 187 324 149 175 171 164 194 197 211 255 104 75 201 160 36 28
244 246 250 256 260 268 276 273 264 267 262 252 229 262 256 237 283 290 255 242 263 249 181 196 24 327 247 229 332 11 270 239 223 249 221 216 199 176 200 222 135 166 305 321 252 63 69